Regional Weather Roundup
Issued by NWS

Home | Current Version | Previous Version | Text Only | Print | Product List | Glossary On
Versions: 1 2 3 4 5 6 7 8 9 10 11 12 13 14 15 16 17 18 19 20 21 22 23 24 25 26 27
000
ASUS44 KJAN 130210
RWRMS

MISSISSIPPI HOURLY WEATHER ROUNDUP
NATIONAL WEATHER SERVICE JACKSON MS
800 PM CST TUE DEC 12 2017

NOTE: "FAIR: INDICATES FEW OR NO CLOUDS BELOW 12,000 FEET WITH NO
SIGNIFICANT WEATHER AND/OR OBSTRUCTIONS TO VISIBILITY.

MSZ001>002-007>008-010>013-018>021-025>028-034>036-130300-
NORTHWEST MISSISSIPPI

CITY           SKY/WX    TMP DP  RH WIND       PRES   REMARKS
BATESVILLE     FAIR      34  21  60 CALM      30.19S
CLARKSDALE     CLEAR     36  23  60 CALM      30.19S
CLEVELAND      FAIR      36  25  64 CALM      30.19S
GREENWOOD      CLEAR     38  26  62 CALM      30.19S
GREENVILLE     CLEAR     33  20  58 CALM      30.18S
OLIVE BRANCH   CLEAR     36  18  48 CALM      30.14S
OXFORD         FAIR      36  21  55 CALM      30.18S
TUNICA           N/A    N/A N/A N/A CALM      30.19F
WINONA         FAIR      39  27  63 NW3       30.18R
$$

MSZ003>006-009-014>017-022>024-029>033-037>039-130300-
NORTHEAST MISSISSIPPI

CITY           SKY/WX    TMP DP  RH WIND       PRES   REMARKS
ABERDEEN       FAIR      37  25  60 N7        30.16R WCI  32
COLUMBUS AFB   CLEAR     41  25  53 NW6       30.14R
CORINTH        FAIR      34  18  51 CALM      30.15S
GOLDN TRIANGLE CLEAR     41  27  57 W6        30.16R
STARKVILLE     FAIR      39  30  70 NW3       30.17R
TUPELO         CLEAR     39  19  44 NW6       30.16R WCI  35
$$

MSZ040-058-130300-
CENTRAL MISSISSIPPI

CITY           SKY/WX    TMP DP  RH WIND       PRES   REMARKS
JACKSON INTL   CLEAR     44  29  55 NW6       30.17R
JACKSON HAWKNS CLEAR     44  28  53 N5        30.18R
MADISON        FAIR      37  30  75 CALM      30.18R
MERIDIAN KEY   CLEAR     44  33  65 NW7       30.15R
MERIDIAN NAS   CLEAR     44  31  60 NW9       30.15R
RAYMOND        FAIR      37  32  81 CALM      30.18S
VICKSBURG VKS  CLEAR     37  30  75 CALM      30.20S
$$

MSZ059>079-130300-
SOUTH MISSISSIPPI

CITY           SKY/WX    TMP DP  RH WIND       PRES   REMARKS
HATTIESBURG    CLEAR     45  33  63 NW6       30.17R
LAUREL         FAIR      42  28  57 NW7       30.17R
MCCOMB         CLEAR     45  31  58 NW6       30.18R
NATCHEZ        CLEAR     39  31  72 S3        30.20S
PINE BELT      CLEAR     44  29  55 N6        30.17R
$$

MSZ080>082-130300-
COASTAL MISSISSIPPI

CITY           SKY/WX    TMP DP  RH WIND       PRES   REMARKS
BAY ST LOUIS   CLEAR     39  37  93 CALM      30.16R
BILOXI         CLEAR     47  38  71 NW3       30.14R
PASCAGOULA     CLEAR     37  35  92 CALM      30.14R
GULFPORT       CLEAR     45  38  76 NW3       30.14S
$$

LAZ007>009-015>016-023>026-130300-
NORTHEAST LOUISIANA

CITY           SKY/WX    TMP DP  RH WIND       PRES   REMARKS
BASTROP        FAIR      36  29  75 CALM      30.20S
TALLULAH/VBURG CLEAR     33  25  72 N3        30.20R
VIDALIA          N/A    N/A N/A N/A MISG      30.19S
$$




USA.gov is the U.S. government's official web portal to all federal, state and local government web resources and services.